sat.trackr.live / text

‹ back to catalog

STARLINK-5771

NORAD 56023 · 2023-042AP

PAYLOAD ACTIVE UNKNOWN

§ Identity

Operator
Country
US
Launch date
2023-03-24
Launch site
AFETR
Launch vehicle
Mass (kg)
RCS (m²)

Purposes: comms

External: N2YO · Heavens-Above · Gunter

§ Orbital elements

Epoch: 2026-09-20T19:42:14.380128Z

Period
94.27 min
Inclination
43.0021°
Eccentricity
0.0002065
Mean motion
15.27577687 rev/d
Perigee alt
481.6 km
Apogee alt
484.5 km
Semi-major
6,861.2 km
B*
2.0438e-5
RAAN
23.6230°
Arg perigee
275.5267°
Mean anomaly
84.5349°
Rev number
19,287

§ Raw data

STARLINK-57711 56023U 23042AP  26263.82099977  .00000300  00000+0  20438-4 0  99902 56023  43.0021  23.6230 0002065 275.5267  84.5349 15.27577687192876

JSON: /api/v1/satellites/56023 · /tle

For live sub-satellite position, see the globe view (requires WebGL).

§ Visibility from observer

Set your observer location to see the next 7 days of passes ≥ 10°. The values pass through the URL so the page stays shareable.

No JS? Fill the form by hand. The geolocation button needs JavaScript.